Location: La Brionne
(46.1728°N, 1.7849°E)
Time: 01:53:59
(UTC+00:00)

Cosmos 2219 Rocket - Pass Details

Date: 25 October 2021
Orbit: 827 x 848 km, 71.0° (Epoch: 26 November)

Event Time Altitude Azimuth Distance (km) Brightness Sun altitude
Exits shadow 03:02:05 - 351° (N) 2,761 5.0 -35.1°
Reaches altitude 10° 03:03:12 10° 359° (N) 2,466 4.8 -34.9°
Maximum altitude 03:07:06 19° 43° (NE) 1,929 4.6 -34.3°
Drops below altitude 10° 03:10:59 10° 87° (E) 2,467 5.4 -33.7°
Sets 03:14:12 0° 105° (ESE) 3,401 6.1 -33.1°
